Location: Thompson
(55.7500°N, 97.8670°W)
Time: 15:37:24
(UTC-05:00)

Amateur Radio Satellites - All Passes

Search period start: 01 October 2016 15:07
Search period end: 02 October 2016 15:07
Location: Thompson, 55.7500°N, 97.8670°W

Satellite Date Start Highest point End Downlink Frequencies (MHz)
Time Altitude Azimuth
Gurwin Techsat 1B 01 Oct 15:08:59 15:14:03 45° 262° (W) 15:19:11 435.225
50 SAT 01 Oct 15:17:12 15:19:33 16° 304° (WNW) 15:21:54 437.505
Oscar 19 01 Oct 15:19:25 15:23:25 22° 271° (W) 15:27:26 437.125/150
DX 1 01 Oct 15:26:22 15:29:59 26° 302° (WNW) 15:33:36 434.975-435.025
TISAT 1 01 Oct 15:32:25 15:36:37 74° 288° (WNW) 15:40:46 437.305
CUBEBUG 1 01 Oct 15:43:05 15:45:04 13° 311° (NW) 15:47:03 437.445
HO-68 01 Oct 15:43:35 15:44:22 10° 7° (N) 15:45:10 435.675
O/OREOS (USA 219) 01 Oct 15:47:30 15:51:59 47° 49° (NE) 15:56:26 437.305
VELOX 1 01 Oct 15:49:18 15:51:43 15° 310° (NW) 15:54:07 145.980
YUBILEINY 01 Oct 15:50:25 15:58:27 44° 275° (W) 16:06:28 435.215
MOZHAYETS 4 01 Oct 15:51:31 15:53:16 12° 82° (E) 15:55:01
Cosmos 2491 01 Oct 15:55:30 16:04:21 89° 100° (E) 16:13:16 435.465 / 435.565
AUBIESAT-1 01 Oct 15:55:58 15:58:25 19° 308° (NW) 16:00:52 437.475
Cosmos 2504 01 Oct 16:02:58 16:10:18 69° 264° (W) 16:18:05 435.465 / 435.565
SO-50 01 Oct 16:03:44 16:08:27 58° 131° (SE) 16:13:08 436.795
SPROUT 01 Oct 16:04:01 16:06:26 15° 308° (NW) 16:08:49 437.525
HORYU 2 01 Oct 16:11:54 16:15:18 22° 56° (NE) 16:18:44 437.375
ITUPSAT 1 01 Oct 16:14:00 16:18:49 63° 103° (ESE) 16:23:36 437.325
GONETS M04 01 Oct 16:19:00 16:22:53 13° 21° (NNE) 16:26:45
BRITE-PL 01 Oct 16:19:10 16:23:18 22° 54° (NE) 16:27:17 437.365/2234.400
ITAMSAT 1 01 Oct 16:20:22 16:25:07 36° 264° (W) 16:29:55 435.822/435.867
SWISSCUBE 01 Oct 16:24:48 16:29:40 83° 106° (ESE) 16:34:29 437.505
UKube-1 01 Oct 16:26:54 16:28:48 13° 312° (NW) 16:30:41 .
BEESAT 01 Oct 16:37:21 16:42:10 86° 289° (WNW) 16:46:59 436.000
AIST 1 01 Oct 16:40:02 16:44:22 82° 259° (W) 16:48:37
NOAA 15 01 Oct 16:41:31 16:45:14 20° 49° (NE) 16:48:59 137.62
AO-7 01 Oct 16:47:25 16:55:26 50° 259° (W) 17:03:30 29.400- 29.500
NOAA 18 01 Oct 16:47:57 16:51:29 18° 45° (NE) 16:55:02 137.9125
Cosmos 2499 01 Oct 17:08:05 17:11:29 13° 35° (NE) 17:14:58 435.465 / 435.565
TISAT 1 01 Oct 17:09:20 17:11:36 14° 309° (NW) 17:13:51 437.305
CUTE-I 01 Oct 17:10:44 17:15:00 25° 53° (NE) 17:19:16 437.470
Cubesat XI-IV 01 Oct 17:11:56 17:16:12 25° 53° (NE) 17:20:30 437.490
KKS-1 01 Oct 17:21:53 17:26:05 40° 98° (E) 17:30:15 437.445
CUBESAT XI-V 01 Oct 17:21:57 17:24:24 14° 84° (E) 17:26:50 437.345
GOMX 1 01 Oct 17:24:47 17:29:12 29° 60° (ENE) 17:33:22 467.674
HO-68 01 Oct 17:24:53 17:29:26 18° 33° (NNE) 17:33:59 435.675
MOZHAYETS 4 01 Oct 17:26:42 17:31:22 67° 103° (ESE) 17:36:00
DOVE 4 01 Oct 17:26:47 17:29:38 16° 53° (NE) 17:32:23 437.250
O/OREOS (USA 219) 01 Oct 17:27:08 17:31:19 35° 251° (WSW) 17:35:28 437.305
STARS 01 Oct 17:44:01 17:48:03 34° 97° (E) 17:52:02 437.465
SO-50 01 Oct 17:44:31 17:49:08 45° 333° (NNW) 17:53:40 436.795
HORYU 2 01 Oct 17:47:05 17:51:29 70° 256° (WSW) 17:55:56 437.375
YUBILEINY 01 Oct 17:50:21 17:52:47 11° 300° (WNW) 17:55:12 435.215
ITUPSAT 1 01 Oct 17:52:20 17:56:21 27° 303° (WNW) 18:00:24 437.325
Cosmos 2491 01 Oct 17:54:47 18:02:28 32° 307° (NW) 18:10:13 435.465 / 435.565
BRITE-PL 01 Oct 17:55:32 18:01:11 85° 73° (ENE) 18:06:34 437.365/2234.400
Cosmos 2504 01 Oct 17:57:45 18:02:24 18° 287° (WNW) 18:07:13 435.465 / 435.565
CUSAT 1 01 Oct 18:00:38 18:05:51 21° 75° (ENE) 18:11:25 437.405
LilacSat-2 01 Oct 18:01:22 18:04:52 37° 66° (ENE) 18:08:24 437.200
SWISSCUBE 01 Oct 18:03:20 18:06:57 22° 307° (NW) 18:10:34 437.505
CINEMA 3 01 Oct 18:09:35 18:11:01 12° 49° (NE) 18:12:27 145.822/145.860
GONETS M04 01 Oct 18:15:54 18:23:35 31° 53° (NE) 18:31:10
BEESAT 01 Oct 18:15:59 18:19:22 19° 308° (NW) 18:22:45 436.000
NOAA 15 01 Oct 18:18:58 18:24:18 76° 69° (ENE) 18:29:38 137.62
AIST 1 01 Oct 18:19:22 18:21:13 13° 280° (W) 18:23:03
NOAA 18 01 Oct 18:25:52 18:31:16 65° 67° (ENE) 18:36:41 137.9125
DANDE 01 Oct 18:31:29 18:34:54 15° 68° (ENE) 18:38:40 436.750
SEEDS 01 Oct 18:43:08 18:45:03 13° 50° (NE) 18:46:57 437.485
AO-7 01 Oct 18:46:56 18:50:28 13° 283° (WNW) 18:54:01 29.400- 29.500
CUTE 1.7 + AOD 2 01 Oct 18:48:27 18:51:18 18° 54° (NE) 18:54:09 437.475
CUTE-I 01 Oct 18:49:14 18:54:34 80° 255° (WSW) 18:59:57 437.470
CANX-2 01 Oct 18:50:15 18:53:22 20° 56° (NE) 18:56:29 2200.000
Cubesat XI-IV 01 Oct 18:50:29 18:55:49 79° 254° (WSW) 19:01:11 437.490
AAUSAT CUBESAT 2 01 Oct 18:55:08 18:55:24 10° 47° (NE) 18:55:39 437.432
CUBESAT XI-V 01 Oct 18:57:52 19:02:37 77° 105° (ESE) 19:07:18 437.345
KKS-1 01 Oct 18:58:36 19:02:38 35° 298° (WNW) 19:06:39 437.445
Cosmos 2499 01 Oct 19:00:15 19:07:11 39° 63° (ENE) 19:14:34 435.465 / 435.565
GOMX 1 01 Oct 19:01:54 19:07:04 60° 259° (W) 19:11:56 467.674
DOVE 4 01 Oct 19:01:57 19:06:45 76° 72° (ENE) 19:11:16 437.250
RS-15 01 Oct 19:03:24 19:12:29 27° 101° (E) 19:21:49 29.354- 29.394
MOZHAYETS 4 01 Oct 19:04:26 19:08:11 24° 303° (WNW) 19:11:53
HO-68 01 Oct 19:08:53 19:15:39 48° 57° (ENE) 19:22:27 435.675
STARS 01 Oct 19:20:24 19:24:28 39° 296° (WNW) 19:28:32 437.465
SO-50 01 Oct 19:26:28 19:30:35 28° 356° (N) 19:34:37 436.795
HORYU 2 01 Oct 19:27:21 19:28:54 12° 276° (W) 19:30:28 437.375
BRITE-PL 01 Oct 19:35:59 19:40:15 22° 272° (W) 19:44:23 437.365/2234.400
LilacSat-2 01 Oct 19:36:00 19:39:16 27° 266° (W) 19:42:34 437.200
CUSAT 1 01 Oct 19:39:25 19:46:32 71° 98° (E) 19:54:33 437.405
COMPASS 1 01 Oct 19:39:59 19:43:25 25° 60° (ENE) 19:46:51 437.405
CINEMA 3 01 Oct 19:43:10 19:47:23 57° 70° (ENE) 19:51:31 145.822/145.860
Cosmos 2491 01 Oct 19:59:06 20:03:07 13° 338° (NNW) 20:07:09 435.465 / 435.565
NOAA 15 01 Oct 20:00:28 20:04:39 23° 270° (W) 20:08:52 137.62
STRAND 1 01 Oct 20:06:12 20:10:32 26° 92° (E) 20:14:51 437.568
FUNcube-1 01 Oct 20:07:12 20:09:58 18° 55° (NE) 20:12:46 145.935
AO-85 01 Oct 20:07:41 20:09:55 13° 111° (ESE) 20:12:06 145.980
NOAA 18 01 Oct 20:07:43 20:12:23 28° 267° (W) 20:17:04 137.9125
DANDE 01 Oct 20:09:43 20:15:47 55° 93° (E) 20:23:20 436.750
GONETS M04 01 Oct 20:12:49 20:21:44 89° 83° (E) 20:30:31
SEEDS 01 Oct 20:15:46 20:19:57 63° 71° (ENE) 20:24:11 437.485
ISS 01 Oct 20:18:39 20:20:22 14° 147° (SSE) 20:22:05 145.825
CUBEBUG 2 01 Oct 20:21:52 20:25:49 43° 66° (ENE) 20:29:46 437.445
CUTE 1.7 + AOD 2 01 Oct 20:22:20 20:26:36 87° 254° (WSW) 20:30:56 437.475
CANX-2 01 Oct 20:24:31 20:28:47 75° 257° (WSW) 20:33:06 2200.000
AAUSAT CUBESAT 2 01 Oct 20:25:55 20:29:56 47° 67° (ENE) 20:33:59 437.432
UWE-3 01 Oct 20:30:55 20:34:44 37° 65° (ENE) 20:38:36 435.000/436.395/437.385
CUTE-I 01 Oct 20:32:10 20:35:31 17° 275° (W) 20:38:52 437.470
Cubesat XI-IV 01 Oct 20:33:29 20:36:47 16° 275° (W) 20:40:07 437.490
CUBESAT XI-V 01 Oct 20:35:57 20:39:32 22° 305° (NW) 20:43:07 437.345
HUMSAT D 01 Oct 20:36:28 20:37:04 10° 47° (NE) 20:37:40 437.325/437.525
Oscar 11 01 Oct 20:40:04 20:43:55 32° 63° (ENE) 20:47:49 145.826/435.025
DOVE 4 01 Oct 20:41:31 20:44:56 19° 271° (W) 20:48:14 437.250
GOMX 1 01 Oct 20:44:21 20:46:06 12° 278° (W) 20:47:49 467.674
ZACube-1 01 Oct 20:50:21 20:54:12 38° 65° (ENE) 20:58:06 437.345
Cosmos 2499 01 Oct 20:53:23 21:00:47 65° 265° (W) 21:08:44 435.465 / 435.565
HO-68 01 Oct 20:56:25 21:03:24 54° 259° (W) 21:10:25 435.675
SO-50 01 Oct 21:07:46 21:12:08 36° 20° (NNE) 21:16:24 436.795
DELFI C3 01 Oct 21:09:21 21:12:44 27° 61° (ENE) 21:16:10 145.870
RS-15 01 Oct 21:11:09 21:22:52 73° 128° (SE) 21:35:07 29.354- 29.394
COMPASS 1 01 Oct 21:14:35 21:18:43 55° 260° (W) 21:22:53 437.405
CINEMA 3 01 Oct 21:21:31 21:24:53 22° 269° (W) 21:28:12 145.822/145.860
CUSAT 1 01 Oct 21:22:20 21:29:12 40° 302° (WNW) 21:36:42 437.405
PRISM 01 Oct 21:38:50 21:41:53 19° 90° (E) 21:44:55 437.425
FUNcube-1 01 Oct 21:41:34 21:45:43 83° 258° (WSW) 21:49:56 145.935
AO-85 01 Oct 21:44:38 21:49:35 56° 130° (SE) 21:54:11 145.980
STRAND 1 01 Oct 21:45:01 21:50:09 64° 292° (WNW) 21:55:15 437.568
DANDE 01 Oct 21:52:40 21:58:51 46° 299° (WNW) 22:06:27 436.750
SEEDS 01 Oct 21:52:52 21:56:04 20° 270° (W) 21:59:18 437.485
ISS 01 Oct 21:53:13 21:56:11 32° 166° (SSE) 21:59:10 145.825
CUBEBUG 2 01 Oct 21:59:02 22:02:37 28° 266° (W) 22:06:14 437.445
CUBEBUG 1 01 Oct 22:00:21 22:01:04 10° 45° (NE) 22:01:47 437.445
CUTE 1.7 + AOD 2 01 Oct 22:00:52 22:03:08 14° 275° (W) 22:05:26 437.475
AAUSAT CUBESAT 2 01 Oct 22:02:05 22:05:38 26° 267° (W) 22:09:12 437.432
Cosmos 2491 01 Oct 22:02:33 22:05:25 12° 13° (NNE) 22:08:17 435.465 / 435.565
CANX-2 01 Oct 22:03:44 22:05:26 12° 277° (W) 22:07:08 2200.000
UWE-3 01 Oct 22:07:33 22:11:17 32° 265° (W) 22:15:04 435.000/436.395/437.385
HUMSAT D 01 Oct 22:07:47 22:11:45 49° 68° (ENE) 22:15:48 437.325/437.525
VELOX 1 01 Oct 22:07:52 22:08:30 10° 44° (NE) 22:09:08 145.980
GONETS M04 01 Oct 22:10:26 22:17:32 29° 283° (WNW) 22:24:35
Oscar 11 01 Oct 22:15:54 22:20:00 41° 262° (W) 22:24:09 145.826/435.025
ESTCUBE 1 01 Oct 22:24:14 22:27:38 21° 55° (NE) 22:31:02 437.505/2401.250
ANTELSAT 01 Oct 22:25:08 22:26:39 11° 83° (E) 22:28:11 437.575/2403.000
ZACube-1 01 Oct 22:26:52 22:30:36 32° 265° (W) 22:34:22 437.345
UKube-1 01 Oct 22:42:49 22:44:01 11° 46° (NE) 22:45:12 .
TIGRISAT 01 Oct 22:43:28 22:46:10 16° 87° (E) 22:48:55 435.000
DELFI C3 01 Oct 22:43:33 22:47:25 46° 261° (W) 22:51:20 145.870
M-CUBED/EXP-1 PRIME 01 Oct 22:47:46 22:50:11 17° 50° (NE) 22:52:31 437.505
Cosmos 2499 01 Oct 22:48:01 22:52:33 17° 288° (WNW) 22:57:15 435.465 / 435.565
SO-50 01 Oct 22:48:23 22:53:04 83° 221° (SW) 22:57:36 436.795
HO-68 01 Oct 22:49:41 22:52:53 13° 282° (WNW) 22:56:07 435.675
50 SAT 01 Oct 22:54:35 22:56:47 15° 56° (NE) 22:59:01 437.505
AISAT 01 Oct 22:57:32 23:01:00 23° 56° (ENE) 23:04:28 437.250
CUSAT 1 01 Oct 23:09:04 23:13:43 17° 328° (NNW) 23:18:30 437.405
PRISM 01 Oct 23:13:29 23:17:37 63° 290° (WNW) 23:21:41 437.425
DX 1 01 Oct 23:17:27 23:20:49 22° 56° (NE) 23:24:13 434.975-435.025
FUNcube-1 01 Oct 23:20:51 23:22:42 13° 276° (W) 23:24:35 145.935
RS-15 01 Oct 23:24:01 23:35:59 65° 337° (NNW) 23:48:22 29.354- 29.394
UNISAT 6 01 Oct 23:24:43 23:28:48 35° 96° (E) 23:32:56 437.425
STRAND 1 01 Oct 23:25:19 23:28:29 17° 313° (NW) 23:31:38 437.568
AO-85 01 Oct 23:25:28 23:30:13 46° 331° (NNW) 23:34:36 145.980
ISS 01 Oct 23:29:13 23:32:18 39° 186° (S) 23:35:23 145.825
CUBEBUG 1 01 Oct 23:32:10 23:36:23 45° 66° (ENE) 23:40:34 437.445
JAS-2 01 Oct 23:36:23 23:41:20 18° 77° (ENE) 23:46:09 435.910
DANDE 01 Oct 23:39:21 23:44:00 18° 326° (NW) 23:49:09 436.750
AUBIESAT-1 01 Oct 23:39:32 23:42:58 35° 59° (ENE) 23:46:13 437.475
VELOX 1 01 Oct 23:39:44 23:43:57 43° 65° (ENE) 23:48:11 145.980
HUMSAT D 01 Oct 23:44:13 23:47:38 25° 268° (W) 23:51:06 437.325/437.525
QB50P1 01 Oct 23:45:58 23:46:35 10° 83° (E) 23:47:12 145.935-145.965
SPROUT 01 Oct 23:52:01 23:55:51 34° 63° (ENE) 23:59:42 437.525
POPSAT HIP 1 01 Oct 23:58:39 00:00:46 13° 86° (E) 00:02:54 437.405
ESTCUBE 1 01 Oct 23:59:26 00:03:59 79° 257° (WSW) 00:08:35 437.505/2401.250
Cosmos 2491 01 Oct 23:59:40 00:06:41 25° 46° (NE) 00:13:38 435.465 / 435.565
ANTELSAT 01 Oct 23:59:47 00:04:12 68° 104° (ESE) 00:08:42 437.575/2403.000
NANOSAT C BR1 02 Oct 00:11:19 00:14:03 17° 88° (E) 00:16:48 145.865
UKube-1 02 Oct 00:14:57 00:19:08 49° 66° (ENE) 00:23:19 .
TIGRISAT 02 Oct 00:19:03 00:23:29 87° 284° (WNW) 00:27:59 435.000
M-CUBED/EXP-1 PRIME 02 Oct 00:20:31 00:24:23 80° 248° (WSW) 00:27:58 437.505
50 SAT 02 Oct 00:26:09 00:29:48 80° 255° (WSW) 00:33:31 437.505
SWISSCUBE 02 Oct 00:28:10 00:29:06 11° 41° (NE) 00:30:01 437.505
SO-50 02 Oct 00:29:42 00:32:55 19° 245° (WSW) 00:36:03 436.795
AISAT 02 Oct 00:32:41 00:37:07 68° 256° (WSW) 00:41:34 437.250
QB50P2 02 Oct 00:38:30 00:42:17 31° 95° (E) 00:46:03 145.880/145.840
BEESAT 02 Oct 00:39:48 00:41:26 12° 43° (NE) 00:43:05 436.000
POLYITAN 1 02 Oct 00:40:39 00:44:26 31° 95° (E) 00:48:13 437.675
BEESAT 3 02 Oct 00:44:21 00:47:25 22° 120° (ESE) 00:50:32 437.485
PRISM 02 Oct 00:50:18 00:52:10 13° 311° (NW) 00:54:00 437.425
DX 1 02 Oct 00:52:17 00:56:39 68° 257° (WSW) 01:01:02 434.975-435.025
TISAT 1 02 Oct 00:55:56 00:59:42 34° 63° (ENE) 01:03:29 437.305
BUGSAT 1 02 Oct 00:56:03 00:58:51 18° 90° (E) 01:01:38 437.445
UNISAT 6 02 Oct 01:01:29 01:05:34 39° 296° (WNW) 01:09:45 437.425
ISS 02 Oct 01:05:44 01:08:17 21° 205° (SSW) 01:10:50 145.825
AO-85 02 Oct 01:07:35 01:11:35 26° 354° (N) 01:15:20 145.980
CUBEBUG 1 02 Oct 01:08:57 01:12:50 30° 266° (W) 01:16:43 437.445
DUCHIFAT 1 02 Oct 01:11:47 01:15:53 50° 101° (E) 01:19:59 145.980
YUBILEINY 02 Oct 01:13:04 01:17:13 14° 64° (ENE) 01:21:20 435.215
AUBIESAT-1 02 Oct 01:14:09 01:17:30 29° 256° (WSW) 01:20:41 437.475
VELOX 1 02 Oct 01:16:35 01:20:34 31° 265° (W) 01:24:33 145.980
QB50P1 02 Oct 01:19:01 01:23:14 66° 103° (ESE) 01:27:25 145.935-145.965
JAS-2 02 Oct 01:20:11 01:28:02 61° 100° (E) 01:35:30 435.910
SPROUT 02 Oct 01:27:47 01:31:46 38° 263° (W) 01:35:47 437.525
DANDE 02 Oct 01:29:23 01:30:39 10° 354° (N) 01:31:57 436.750
POPSAT HIP 1 02 Oct 01:33:00 01:37:14 85° 104° (ESE) 01:41:29 437.405
ANTELSAT 02 Oct 01:37:09 01:40:35 22° 303° (WNW) 01:44:02 437.575/2403.000
RS-15 02 Oct 01:38:39 01:50:44 58° 10° (N) 02:02:56 29.354- 29.394
ESTCUBE 1 02 Oct 01:39:16 01:41:34 14° 275° (W) 01:43:54 437.505/2401.250
Oscar 19 02 Oct 01:43:17 01:46:23 16° 85° (E) 01:49:28 437.125/150
NANOSAT C BR1 02 Oct 01:46:06 01:50:20 77° 287° (WNW) 01:54:32 145.865
BEESAT 2 02 Oct 01:48:33 01:52:17 41° 127° (SE) 01:56:04 435.950
ITUPSAT 1 02 Oct 01:51:06 01:55:18 32° 59° (ENE) 01:59:32 437.325
UKube-1 02 Oct 01:51:42 01:55:24 27° 266° (W) 01:59:07 .
Cosmos 2491 02 Oct 01:56:32 02:05:26 70° 73° (ENE) 02:14:15 435.465 / 435.565
TIGRISAT 02 Oct 01:56:44 01:59:38 17° 306° (NW) 02:02:34 435.000
M-CUBED/EXP-1 PRIME 02 Oct 01:58:21 01:59:27 11° 265° (W) 02:00:30 437.505
SWISSCUBE 02 Oct 02:01:17 02:05:45 40° 62° (ENE) 02:10:13 437.505
50 SAT 02 Oct 02:03:20 02:03:58 10° 275° (W) 02:04:36 437.505
AISAT 02 Oct 02:12:59 02:14:28 11° 277° (W) 02:15:56 437.250
BEESAT 02 Oct 02:13:38 02:18:10 45° 64° (ENE) 02:22:44 436.000
QB50P2 02 Oct 02:14:14 02:18:12 41° 295° (WNW) 02:22:11 145.880/145.840
POLYITAN 1 02 Oct 02:16:23 02:20:21 41° 295° (WNW) 02:24:20 437.675
BEESAT 3 02 Oct 02:20:47 02:24:43 74° 319° (NW) 02:28:42 437.485
BUGSAT 1 02 Oct 02:30:39 02:34:40 66° 290° (WNW) 02:38:40 437.445
TISAT 1 02 Oct 02:31:27 02:35:21 37° 263° (W) 02:39:15 437.305
DX 1 02 Oct 02:32:20 02:33:42 11° 276° (W) 02:35:04 434.975-435.025
CUSAT 1 02 Oct 02:42:19 02:45:45 13° 24° (NNE) 02:49:05 437.405
DUCHIFAT 1 02 Oct 02:47:53 02:51:23 26° 300° (WNW) 02:54:53 145.980
AO-85 02 Oct 02:49:02 02:53:08 32° 18° (NNE) 02:56:57 145.980
KKS-1 02 Oct 02:52:18 02:55:21 18° 53° (NE) 02:58:24 437.445
QB50P1 02 Oct 02:55:26 02:58:39 22° 303° (WNW) 03:01:53 145.935-145.965
MOZHAYETS 4 02 Oct 02:59:38 03:03:30 27° 59° (ENE) 03:07:24
Cosmos 2504 02 Oct 03:00:11 03:05:08 20° 75° (ENE) 03:10:02 435.465 / 435.565
YUBILEINY 02 Oct 03:03:31 03:11:53 52° 89° (E) 03:20:13 435.215
JAS-2 02 Oct 03:05:26 03:12:52 47° 302° (WNW) 03:20:04 435.910
POPSAT HIP 1 02 Oct 03:09:42 03:12:31 18° 306° (NW) 03:15:21 437.405
STARS 02 Oct 03:13:35 03:16:12 16° 51° (NE) 03:18:51 437.465
DANDE 02 Oct 03:14:02 03:17:41 13° 22° (NNE) 03:21:23 436.750
AIST 2 02 Oct 03:14:18 03:17:04 18° 116° (ESE) 03:19:51 435.215
Gurwin Techsat 1B 02 Oct 03:17:01 03:22:06 42° 98° (E) 03:27:09 435.225
Oscar 19 02 Oct 03:21:23 03:26:35 79° 106° (ESE) 03:31:44 437.125/150
NANOSAT C BR1 02 Oct 03:23:02 03:25:25 15° 308° (NW) 03:27:47 145.865
BEESAT 2 02 Oct 03:26:16 03:30:07 46° 328° (NNW) 03:34:01 435.950
ITUPSAT 1 02 Oct 03:28:20 03:32:59 51° 260° (W) 03:37:42 437.325
SWISSCUBE 02 Oct 03:39:08 03:43:35 38° 263° (W) 03:48:05 437.505
BEESAT 02 Oct 03:51:47 03:56:06 33° 265° (W) 04:00:28 436.000
RS-15 02 Oct 03:52:18 04:04:45 86° 40° (NE) 04:17:06 29.354- 29.394
Cosmos 2491 02 Oct 03:53:54 04:01:48 38° 278° (W) 04:09:40 435.465 / 435.565
BEESAT 3 02 Oct 03:59:32 04:02:56 27° 343° (NNW) 04:06:23 437.485
BUGSAT 1 02 Oct 04:07:36 04:09:20 13° 309° (NW) 04:11:04 437.445
CUSAT 1 02 Oct 04:24:02 04:30:46 29° 50° (NE) 04:36:45 437.405
ITAMSAT 1 02 Oct 04:24:43 04:29:47 47° 100° (E) 04:34:50 435.822/435.867
KKS-1 02 Oct 04:26:54 04:31:22 89° 248° (WSW) 04:35:51 437.445
PCSat 02 Oct 04:27:01 04:31:55 36° 117° (ESE) 04:36:51 145.827
AO-85 02 Oct 04:29:41 04:34:05 90° 88° (E) 04:38:09 145.980
CUBESAT XI-V 02 Oct 04:31:43 04:35:53 32° 61° (ENE) 04:40:04 437.345
MOZHAYETS 4 02 Oct 04:35:54 04:40:25 57° 259° (W) 04:45:00
AO-7 02 Oct 04:39:48 04:47:28 39° 96° (E) 04:55:04 29.400- 29.500
STARS 02 Oct 04:47:33 04:51:55 78° 71° (ENE) 04:56:19 437.465
Cosmos 2504 02 Oct 04:50:09 04:57:22 80° 99° (E) 05:04:35 435.465 / 435.565
AIST 2 02 Oct 04:50:51 04:54:59 86° 137° (SE) 04:59:12 435.215
JAS-2 02 Oct 04:51:08 04:56:10 19° 325° (NW) 05:01:11 435.910
DANDE 02 Oct 04:56:39 05:03:39 29° 49° (NE) 05:10:30 436.750
Gurwin Techsat 1B 02 Oct 04:57:06 05:02:06 42° 298° (WNW) 05:07:05 435.225
YUBILEINY 02 Oct 05:00:16 05:08:47 53° 293° (WNW) 05:17:19 435.215
Oscar 19 02 Oct 05:01:20 05:05:27 24° 307° (NW) 05:09:32 437.125/150
BEESAT 2 02 Oct 05:05:29 05:08:45 23° 351° (N) 05:12:03 435.950
AIST 1 02 Oct 05:16:57 05:21:01 38° 92° (E) 05:25:03
HORYU 2 02 Oct 05:31:35 05:33:56 14° 86° (E) 05:36:16 437.375
BEESAT 3 02 Oct 05:38:28 05:41:40 22° 6° (N) 05:44:52 437.485
STRAND 1 02 Oct 05:52:29 05:55:58 19° 49° (NE) 05:59:28 437.568
BRITE-PL 02 Oct 05:54:20 05:57:16 16° 83° (E) 06:00:03 437.365/2234.400
ITAMSAT 1 02 Oct 06:04:24 06:09:13 38° 300° (WNW) 06:14:01 435.822/435.867
RS-15 02 Oct 06:05:10 06:16:24 44° 248° (WSW) 06:27:29 29.354- 29.394
KKS-1 02 Oct 06:06:00 06:08:37 15° 273° (W) 06:11:15 437.445
CUSAT 1 02 Oct 06:06:05 06:14:01 86° 75° (ENE) 06:20:38 437.405
CUBESAT XI-V 02 Oct 06:08:33 06:13:07 49° 261° (W) 06:17:45 437.345
PCSat 02 Oct 06:09:43 06:15:07 64° 319° (NW) 06:20:33 145.827
O/OREOS (USA 219) 02 Oct 06:10:55 06:12:10 11° 96° (E) 06:13:24 437.305
AO-85 02 Oct 06:11:00 06:13:54 18° 245° (WSW) 06:16:39 145.980
STARS 02 Oct 06:25:53 06:28:50 18° 271° (W) 06:31:48 437.465
NOAA 15 02 Oct 06:27:27 06:30:45 16° 85° (E) 06:34:02 137.62
AIST 2 02 Oct 06:30:10 06:33:55 32° 339° (NNW) 06:37:42 435.215
AO-7 02 Oct 06:32:36 06:40:52 71° 299° (WNW) 06:49:06 29.400- 29.500
JAS-2 02 Oct 06:37:28 06:38:20 10° 350° (N) 06:39:12 435.910
Gurwin Techsat 1B 02 Oct 06:38:48 06:40:50 12° 320° (NW) 06:42:53 435.225
DANDE 02 Oct 06:39:25 06:47:53 75° 73° (ENE) 06:55:49 436.750
NOAA 18 02 Oct 06:41:23 06:44:22 15° 84° (E) 06:47:20 137.9125
BEESAT 2 02 Oct 06:44:14 06:47:39 26° 15° (NNE) 06:51:05 435.950
Cosmos 2504 02 Oct 06:45:27 06:51:38 30° 303° (WNW) 06:57:51 435.465 / 435.565
AIST 1 02 Oct 06:54:43 06:58:41 33° 293° (WNW) 07:02:39
DOVE 4 02 Oct 06:55:34 06:56:25 10° 82° (E) 06:57:17 437.250
GOMX 1 02 Oct 06:56:43 07:00:15 23° 90° (E) 07:03:39 467.674
CUTE-I 02 Oct 06:58:55 07:03:14 24° 90° (E) 07:07:31 437.470
Cubesat XI-IV 02 Oct 07:00:19 07:04:40 24° 90° (E) 07:08:59 437.490
LilacSat-2 02 Oct 07:01:32 07:04:31 21° 91° (E) 07:07:29 437.200
YUBILEINY 02 Oct 07:02:12 07:08:08 19° 322° (NW) 07:14:05 435.215
HORYU 2 02 Oct 07:06:44 07:11:14 82° 108° (ESE) 07:15:42 437.375
BEESAT 3 02 Oct 07:16:23 07:20:11 41° 29° (NNE) 07:23:59 437.485
STRAND 1 02 Oct 07:29:19 07:34:25 76° 71° (ENE) 07:39:35 437.568
GONETS M04 02 Oct 07:29:21 07:35:52 24° 73° (ENE) 07:42:23
BRITE-PL 02 Oct 07:31:42 07:36:36 90° 354° (N) 07:41:06 437.365/2234.400
ITAMSAT 1 02 Oct 07:45:57 07:47:24 11° 322° (NW) 07:48:51 435.822/435.867
O/OREOS (USA 219) 02 Oct 07:46:07 07:50:38 62° 117° (ESE) 07:55:12 437.305
CUSAT 1 02 Oct 07:48:52 07:55:08 28° 280° (W) 08:00:37 437.405
Cosmos 2499 02 Oct 07:48:58 07:53:55 21° 75° (ENE) 07:58:56 435.465 / 435.565
PCSat 02 Oct 07:54:45 07:59:29 29° 343° (NNW) 08:04:13 145.827
CUTE 1.7 + AOD 2 02 Oct 08:01:49 08:03:01 11° 83° (E) 08:04:12 437.475
CANX-2 02 Oct 08:03:25 08:05:25 13° 84° (E) 08:07:25 2200.000
NOAA 15 02 Oct 08:06:05 08:11:26 79° 105° (ESE) 08:16:43 137.62
AIST 2 02 Oct 08:10:02 08:13:27 23° 3° (N) 08:16:53 435.215
HO-68 02 Oct 08:15:53 08:21:24 23° 87° (E) 08:26:53 435.675
JAS-2 02 Oct 08:18:08 08:20:08 11° 15° (NNE) 08:22:09 435.910
NOAA 18 02 Oct 08:20:34 08:26:04 69° 105° (ESE) 08:31:32 137.9125
RS-15 02 Oct 08:21:35 08:25:09 12° 274° (W) 08:28:41 29.354- 29.394
BEESAT 2 02 Oct 08:22:05 08:26:06 65° 37° (NE) 08:30:07 435.950
DANDE 02 Oct 08:22:43 08:30:11 37° 275° (W) 08:37:14 436.750
AO-7 02 Oct 08:25:48 08:32:31 29° 323° (NW) 08:39:13 29.400- 29.500
DOVE 4 02 Oct 08:30:48 08:35:02 71° 103° (ESE) 08:39:10 437.250
GOMX 1 02 Oct 08:34:24 08:38:46 55° 292° (WNW) 08:42:53 467.674
PRISM 02 Oct 08:34:48 08:38:42 38° 64° (ENE) 08:42:36 437.425
LilacSat-2 02 Oct 08:35:21 08:39:06 51° 290° (WNW) 08:42:51 437.200
CUTE-I 02 Oct 08:38:28 08:43:50 74° 291° (WNW) 08:49:11 437.470
Cubesat XI-IV 02 Oct 08:39:56 08:45:18 73° 291° (WNW) 08:50:39 437.490
HORYU 2 02 Oct 08:44:04 08:47:17 20° 306° (NW) 08:50:31 437.375
Cosmos 2504 02 Oct 08:47:22 08:48:08 10° 333° (NNW) 08:48:54 435.465 / 435.565
COMPASS 1 02 Oct 08:50:38 08:53:17 16° 87° (E) 08:55:56 437.405
BEESAT 3 02 Oct 08:54:06 08:57:58 49° 231° (SW) 09:01:49 437.485
UNISAT 6 02 Oct 08:56:34 08:58:57 15° 51° (NE) 09:01:19 437.425
CINEMA 3 02 Oct 09:06:50 09:10:54 48° 100° (E) 09:15:02 145.822/145.860
YUBILEINY 02 Oct 09:08:21 09:09:49 10° 356° (N) 09:11:18 435.215
STRAND 1 02 Oct 09:10:15 09:14:11 22° 271° (W) 09:18:10 437.568
BRITE-PL 02 Oct 09:11:01 09:14:27 19° 308° (NW) 09:17:41 437.365/2234.400
GONETS M04 02 Oct 09:22:30 09:31:20 78° 97° (E) 09:40:12
FUNcube-1 02 Oct 09:23:16 09:25:07 12° 84° (E) 09:26:59 145.935
O/OREOS (USA 219) 02 Oct 09:26:18 09:30:24 30° 319° (NW) 09:34:30 437.305
SEEDS 02 Oct 09:27:41 09:31:47 43° 98° (E) 09:35:52 437.485
ANTELSAT 02 Oct 09:30:20 09:33:48 25° 58° (ENE) 09:37:17 437.575/2403.000
CUTE 1.7 + AOD 2 02 Oct 09:35:24 09:39:43 68° 102° (ESE) 09:44:00 437.475
AAUSAT CUBESAT 2 02 Oct 09:36:00 09:39:46 31° 94° (E) 09:43:32 437.432
CANX-2 02 Oct 09:37:41 09:42:01 79° 102° (ESE) 09:46:20 2200.000
Cosmos 2499 02 Oct 09:38:53 09:45:56 83° 99° (E) 09:53:09 435.465 / 435.565
PCSat 02 Oct 09:39:52 09:44:26 26° 9° (N) 09:48:59 145.827
CUBEBUG 2 02 Oct 09:41:04 09:45:02 35° 96° (E) 09:49:04 437.445
NOAA 15 02 Oct 09:46:28 09:50:45 25° 307° (NW) 09:55:00 137.62
UWE-3 02 Oct 09:48:44 09:52:33 30° 94° (E) 09:56:27 435.000/436.395/437.385
AIST 2 02 Oct 09:48:59 09:52:54 37° 26° (NNE) 09:56:51 435.215
TIGRISAT 02 Oct 09:49:01 09:52:48 32° 62° (ENE) 09:56:38 435.000
Oscar 11 02 Oct 09:55:32 09:59:04 23° 91° (E) 10:02:33 145.826/435.025
JAS-2 02 Oct 09:57:08 10:02:30 23° 40° (NE) 10:08:09 435.910
BEESAT 2 02 Oct 10:00:16 10:03:41 26° 238° (WSW) 10:07:04 435.950
NOAA 18 02 Oct 10:01:44 10:06:23 29° 306° (NW) 10:11:02 137.9125
HO-68 02 Oct 10:02:59 10:10:13 84° 110° (ESE) 10:17:24 435.675
QB50P2 02 Oct 10:05:22 10:07:06 12° 49° (NE) 10:08:50 145.880/145.840
ZACube-1 02 Oct 10:06:47 10:10:39 30° 94° (E) 10:14:32 437.345
POLYITAN 1 02 Oct 10:07:32 10:09:15 12° 49° (NE) 10:10:58 437.675
DOVE 4 02 Oct 10:09:18 10:12:21 20° 304° (NW) 10:15:21 437.250
DANDE 02 Oct 10:09:33 10:10:40 10° 297° (WNW) 10:11:48 436.750
PRISM 02 Oct 10:10:18 10:14:04 32° 264° (W) 10:17:52 437.425
DELFI C3 02 Oct 10:14:16 10:16:42 15° 87° (E) 10:19:06 145.870
GOMX 1 02 Oct 10:14:18 10:15:54 12° 314° (NW) 10:17:29 467.674
AO-7 02 Oct 10:18:10 10:22:47 16° 350° (N) 10:27:24 29.400- 29.500
CUTE-I 02 Oct 10:19:26 10:23:08 19° 312° (NW) 10:26:49 437.470
Cubesat XI-IV 02 Oct 10:20:56 10:24:36 19° 312° (NW) 10:28:16 437.490
COMPASS 1 02 Oct 10:25:09 10:29:25 81° 287° (WNW) 10:33:38 437.405
UNISAT 6 02 Oct 10:30:44 10:34:59 74° 72° (ENE) 10:39:18 437.425
DUCHIFAT 1 02 Oct 10:36:47 10:39:35 18° 54° (NE) 10:42:23 145.980
QB50P1 02 Oct 10:44:01 10:47:14 22° 57° (ENE) 10:50:29 145.935-145.965
CINEMA 3 02 Oct 10:44:24 10:47:53 26° 299° (WNW) 10:51:27 145.822/145.860
POPSAT HIP 1 02 Oct 10:57:39 11:01:11 27° 60° (ENE) 11:04:43 437.405
FUNcube-1 02 Oct 10:57:46 11:02:07 75° 104° (ESE) 11:06:33 145.935
SEEDS 02 Oct 11:03:38 11:07:23 30° 298° (WNW) 11:11:07 437.485
ANTELSAT 02 Oct 11:06:04 11:10:15 56° 259° (WSW) 11:14:30 437.575/2403.000
YUBILEINY 02 Oct 11:06:54 11:11:51 16° 31° (NNE) 11:16:46 435.215
O/OREOS (USA 219) 02 Oct 11:09:09 11:11:18 13° 343° (NNW) 11:13:28 437.305
NANOSAT C BR1 02 Oct 11:10:07 11:13:51 32° 62° (ENE) 11:17:36 145.865
AAUSAT CUBESAT 2 02 Oct 11:11:25 11:15:21 39° 295° (WNW) 11:19:17 437.432
CUTE 1.7 + AOD 2 02 Oct 11:11:53 11:15:11 22° 303° (WNW) 11:18:28 437.475
CANX-2 02 Oct 11:14:21 11:17:25 19° 304° (NW) 11:20:28 2200.000
CUBEBUG 2 02 Oct 11:17:45 11:21:43 37° 295° (WNW) 11:25:46 437.445
HUMSAT D 02 Oct 11:18:58 11:22:52 33° 95° (E) 11:26:46 437.325/437.525
GONETS M04 02 Oct 11:21:05 11:29:06 37° 303° (WNW) 11:37:10
PCSat 02 Oct 11:23:47 11:29:03 47° 34° (NE) 11:34:18 145.827
UWE-3 02 Oct 11:25:04 11:29:11 44° 293° (WNW) 11:33:23 435.000/436.395/437.385
TIGRISAT 02 Oct 11:25:27 11:29:27 40° 262° (W) 11:33:31 435.000
AIST 2 02 Oct 11:27:29 11:31:39 64° 228° (SW) 11:35:48 435.215
Oscar 19 02 Oct 11:31:14 11:33:34 13° 42° (NE) 11:35:55 437.125/150
Oscar 11 02 Oct 11:31:14 11:35:32 57° 291° (WNW) 11:39:49 145.826/435.025
Cosmos 2499 02 Oct 11:34:03 11:40:01 28° 305° (NW) 11:46:08 435.465 / 435.565
QB50P2 02 Oct 11:37:59 11:42:07 60° 70° (ENE) 11:46:17 145.880/145.840
JAS-2 02 Oct 11:39:12 11:46:08 61° 64° (ENE) 11:53:45 435.910
POLYITAN 1 02 Oct 11:40:08 11:44:16 60° 69° (ENE) 11:48:25 437.675
ZACube-1 02 Oct 11:42:58 11:47:06 44° 293° (WNW) 11:51:18 437.345
ESTCUBE 1 02 Oct 11:45:35 11:48:01 14° 85° (E) 11:50:27 437.505/2401.250
DELFI C3 02 Oct 11:48:02 11:52:05 79° 288° (WNW) 11:56:05 145.870
HO-68 02 Oct 11:51:12 11:57:22 33° 312° (NW) 12:03:30 435.675
BUGSAT 1 02 Oct 11:52:29 11:56:09 34° 64° (ENE) 11:59:49 437.445
COMPASS 1 02 Oct 12:01:51 12:04:21 15° 307° (NW) 12:06:51 437.405
AO-7 02 Oct 12:07:33 12:12:35 18° 17° (NNE) 12:17:38 29.400- 29.500
UNISAT 6 02 Oct 12:09:23 12:12:16 17° 272° (W) 12:15:09 437.425
DUCHIFAT 1 02 Oct 12:10:35 12:14:46 84° 251° (WSW) 12:18:59 145.980
AISAT 02 Oct 12:16:25 12:18:49 14° 86° (E) 12:21:11 437.250
QB50P1 02 Oct 12:18:31 12:22:41 64° 257° (WSW) 12:26:53 145.935-145.965
POPSAT HIP 1 02 Oct 12:32:43 12:36:47 49° 260° (W) 12:40:53 437.405
DX 1 02 Oct 12:34:21 12:36:22 13° 85° (E) 12:38:23 434.975-435.025
FUNcube-1 02 Oct 12:34:46 12:37:57 20° 303° (WNW) 12:41:12 145.935
Cosmos 2504 02 Oct 12:39:43 12:44:02 16° 41° (NE) 12:48:29 435.465 / 435.565
NANOSAT C BR1 02 Oct 12:45:36 12:49:33 39° 262° (W) 12:53:30 145.865
CUBEBUG 1 02 Oct 12:49:20 12:53:14 31° 95° (E) 12:57:05 437.445
O/OREOS (USA 219) 02 Oct 12:51:20 12:52:50 11° 9° (N) 12:54:19 437.305
HUMSAT D 02 Oct 12:54:35 12:58:33 38° 295° (WNW) 13:02:32 437.325/437.525
VELOX 1 02 Oct 12:58:33 13:02:28 30° 95° (E) 13:06:20 145.980
YUBILEINY 02 Oct 13:03:38 13:11:47 41° 60° (ENE) 13:19:53 435.215
SPROUT 02 Oct 13:06:04 13:09:27 22° 91° (E) 13:12:49 437.525
Oscar 19 02 Oct 13:06:49 13:11:48 47° 64° (ENE) 13:16:47 437.125/150
Gurwin Techsat 1B 02 Oct 13:06:57 13:11:30 30° 56° (ENE) 13:16:04 435.225
PCSat 02 Oct 13:07:20 13:12:38 55° 236° (WSW) 13:17:55 145.827
AIST 2 02 Oct 13:07:31 13:09:23 13° 248° (WSW) 13:11:13 435.215
Oscar 11 02 Oct 13:09:01 13:10:50 12° 311° (NW) 13:12:39 145.826/435.025
QB50P2 02 Oct 13:15:05 13:18:18 21° 269° (W) 13:21:32 145.880/145.840
Cosmos 2491 02 Oct 13:15:16 13:20:26 17° 67° (ENE) 13:25:37 435.465 / 435.565
POLYITAN 1 02 Oct 13:17:15 13:20:27 21° 269° (W) 13:23:40 437.675
50 SAT 02 Oct 13:19:48 13:23:20 42° 99° (E) 13:26:49 437.505
ESTCUBE 1 02 Oct 13:21:00 13:25:36 82° 106° (ESE) 13:30:08 437.505/2401.250
DELFI C3 02 Oct 13:24:07 13:26:17 14° 307° (NW) 13:28:26 145.870
GONETS M04 02 Oct 13:24:48 13:29:24 15° 333° (NNW) 13:34:01
JAS-2 02 Oct 13:24:53 13:31:29 43° 267° (W) 13:38:46 435.910
M-CUBED/EXP-1 PRIME 02 Oct 13:27:18 13:29:29 17° 98° (E) 13:31:41 437.505
BUGSAT 1 02 Oct 13:27:49 13:31:32 34° 263° (W) 13:35:16 437.445
UKube-1 02 Oct 13:30:27 13:34:19 30° 95° (E) 13:38:08 .
HO-68 02 Oct 13:39:46 13:43:05 14° 336° (NNW) 13:46:24 435.675
DUCHIFAT 1 02 Oct 13:49:12 13:51:10 13° 274° (W) 13:53:09 145.980
AISAT 02 Oct 13:51:34 13:56:00 86° 107° (ESE) 14:00:23 437.250
AO-7 02 Oct 13:55:54 14:03:09 35° 43° (NE) 14:10:24 29.400- 29.500
TISAT 1 02 Oct 14:07:49 14:11:00 21° 91° (E) 14:14:10 437.305
DX 1 02 Oct 14:08:57 14:13:19 79° 104° (ESE) 14:17:40 434.975-435.025
ITAMSAT 1 02 Oct 14:11:48 14:16:20 32° 57° (ENE) 14:20:55 435.822/435.867
AUBIESAT-1 02 Oct 14:19:01 14:22:14 46° 108° (ESE) 14:25:27 437.475
CUBEBUG 1 02 Oct 14:25:33 14:29:39 42° 295° (WNW) 14:33:43 437.445
O/OREOS (USA 219) 02 Oct 14:30:25 14:34:02 22° 34° (NE) 14:37:37 437.305
Cosmos 2504 02 Oct 14:32:24 14:39:34 49° 67° (ENE) 14:47:08 435.465 / 435.565
VELOX 1 02 Oct 14:34:53 14:39:06 45° 295° (WNW) 14:43:17 145.980
SPROUT 02 Oct 14:41:32 14:45:44 57° 291° (WNW) 14:49:54 437.525
Gurwin Techsat 1B 02 Oct 14:45:52 14:51:09 65° 257° (WSW) 14:56:28 435.225
Oscar 19 02 Oct 14:46:30 14:51:17 36° 264° (W) 14:56:05 437.125/150
SO-50 02 Oct 14:49:54 14:53:47 25° 119° (ESE) 14:57:39 436.795
PCSat 02 Oct 14:52:47 14:54:55 12° 257° (WSW) 14:57:02 145.827
50 SAT 02 Oct 14:53:38 14:56:39 24° 299° (WNW) 14:59:40 437.505
ESTCUBE 1 02 Oct 14:58:36 15:01:55 20° 306° (NW) 15:05:13 437.505/2401.250
